sat.trackr.live / text

‹ back to catalog

STARLINK-37038

NORAD 68226 · 2026-053V

PAYLOAD ACTIVE UNKNOWN

§ Identity

Operator
Country
US
Launch date
2026-03-17
Launch site
AFWTR
Launch vehicle
Mass (kg)
RCS (m²)

Purposes: comms

External: N2YO · Heavens-Above · Gunter

§ Orbital elements

Epoch: 2026-05-25T02:35:43.797984Z

Period
93.91 min
Inclination
97.2867°
Eccentricity
0.0002952
Mean motion
15.33446134 rev/d
Perigee alt
463.5 km
Apogee alt
467.6 km
Semi-major
6,843.7 km
B*
3.3621e-4
RAAN
20.6230°
Arg perigee
77.6549°
Mean anomaly
282.5024°
Rev number
1,191

§ Raw data

STARLINK-370381 68226U 26053V   26145.10814581  .00010796  00000+0  33621-3 0  99962 68226  97.2867  20.6230 0002952  77.6549 282.5024 15.33446134 11913

JSON: /api/v1/satellites/68226 · /tle

For live sub-satellite position, see the globe view (requires WebGL).

§ Visibility from observer

Set your observer location to see the next 7 days of passes ≥ 10°. The values pass through the URL so the page stays shareable.

No JS? Fill the form by hand. The geolocation button needs JavaScript.